Monroe, LA

8:12 PM CST on February 06, 2016 (GMT -0600)
Monroe Regional

Weather History for KMLU - April, 2014

Change the Weather History Date:

Saturday, April 12, 2014

  Actual Average Record
Temperature  
Mean Temperature 69 °F 65 °F  
Max Temperature 81 °F 77 °F 90 °F (1948)
Min Temperature 56 °F 52 °F 36 °F (1951)
Degree Days  
Heating Degree Days 0 3  
Month to date heating degree days 54 50  
Since 1 July heating degree days 2754 2194  
Cooling Degree Days 4 3  
Month to date cooling degree days 26 29  
Year to date cooling degree days 35 72  
Growing Degree Days 18 (Base 50)    
Moisture  
Dew Point 57 °F    
Average Humidity 73    
Maximum Humidity 100    
Minimum Humidity 45    
Precipitation  
Precipitation 0.00 in 0.15 in 2.67 in (1955)
Month to date precipitation 6.08 1.76  
Year to date precipitation 14.85 16.12  
Snow  
Snow 0.00 in - - ()
Month to date snowfall 0.0  
Since 1 July snowfall 0.5  
Snow Depth 0.00 in    
Sea Level Pressure  
Sea Level Pressure 30.04 in    
Wind  
Wind Speed 8 mph (South)    
Max Wind Speed 16 mph    
Max Gust Speed 24 mph    
Visibility 10 miles    
Events      
T = Trace of Precipitation, MM = Missing Value Source: NWS Daily Summary

Daily Weather History Graph

Daily Weather History Graph

Search for Another Location

Airport or City:

Trip Planner

Search our weather history database for the weather conditions in past years. The results will help you decide how hot, cold, wet, or windy it might be!

Date:

Astronomy

Apr. 12, 2014 Rise Set
Actual Time 6:42 AM CDT 7:35 PM CDT
Civil Twilight 6:17 AM CDT 8:01 PM CDT
Nautical Twilight 5:47 AM CDT 8:30 PM CDT
Astronomical Twilight 5:17 AM CDT 9:01 PM CDT
Moon 5:21 PM CDT (4/12) 5:00 AM CDT (4/12)
Length of Visible Light 13h 43m
Length of Day
12h 53m
Waxing Gibbous, 93% of the Moon is Illuminated
Apr 12
Waxing Gibbous
Apr 15
Full
Apr 22
Last Quarter
Apr 29
New
May 6
First Quarter

Hourly Weather History & Observations

Time (CDT) Temp. Heat Index Dew Point Humidity Pressure Visibility Wind Dir Wind Speed Gust Speed Precip Events Conditions
12:53 AM 62.1 °F - 55.9 °F 80% 30.09 in 10.0 mi South 4.6 mph - N/A   Clear
1:53 AM 62.1 °F - 55.9 °F 80% 30.08 in 10.0 mi South 4.6 mph - N/A   Clear
2:53 AM 60.1 °F - 55.9 °F 86% 30.07 in 10.0 mi SSE 3.5 mph - N/A   Clear
3:53 AM 57.0 °F - 55.0 °F 93% 30.07 in 10.0 mi Calm Calm - N/A   Clear
4:53 AM 55.9 °F - 55.0 °F 97% 30.08 in 10.0 mi SSE 3.5 mph - N/A   Clear
5:53 AM 57.9 °F - 55.9 °F 93% 30.08 in 10.0 mi SSE 4.6 mph - N/A   Clear
6:53 AM 57.9 °F - 55.9 °F 93% 30.09 in 10.0 mi SE 3.5 mph - N/A   Mostly Cloudy
7:53 AM 60.1 °F - 57.0 °F 90% 30.11 in 10.0 mi SSE 4.6 mph - N/A   Mostly Cloudy
8:53 AM 62.1 °F - 57.9 °F 86% 30.12 in 10.0 mi SSE 6.9 mph - N/A   Overcast
9:53 AM 66.0 °F - 59.0 °F 78% 30.12 in 10.0 mi South 8.1 mph - N/A   Overcast
10:53 AM 70.0 °F - 59.0 °F 68% 30.13 in 10.0 mi South 9.2 mph - N/A   Overcast
11:53 AM 72.0 °F - 57.9 °F 61% 30.12 in 10.0 mi South 15.0 mph 21.9 mph N/A   Overcast
12:53 PM 75.9 °F - 57.0 °F 52% 30.08 in 10.0 mi SSW 11.5 mph 21.9 mph N/A   Scattered Clouds
1:53 PM 78.1 °F - 57.9 °F 50% 30.05 in 10.0 mi SSW 12.7 mph 17.3 mph N/A   Partly Cloudy
2:53 PM 80.1 °F 80.4 °F 57.0 °F 45% 30.02 in 10.0 mi SSE 10.4 mph 19.6 mph N/A   Partly Cloudy
3:53 PM 80.1 °F 80.4 °F 57.0 °F 45% 29.99 in 10.0 mi South 15.0 mph 19.6 mph N/A   Clear
4:53 PM 78.1 °F - 57.0 °F 48% 29.96 in 10.0 mi South 15.0 mph 20.7 mph N/A   Clear
5:53 PM 79.0 °F - 57.0 °F 47% 29.95 in 10.0 mi South 9.2 mph 20.7 mph N/A   Clear
6:53 PM 77.0 °F - 57.0 °F 50% 29.94 in 10.0 mi South 10.4 mph 18.4 mph N/A   Clear
7:53 PM 73.0 °F - 57.0 °F 57% 29.94 in 10.0 mi South 6.9 mph - N/A   Clear
8:53 PM 70.0 °F - 57.0 °F 63% 29.95 in 10.0 mi South 6.9 mph - N/A   Clear
9:53 PM 70.0 °F - 57.0 °F 63% 29.95 in 10.0 mi South 8.1 mph - N/A   Clear
10:53 PM 68.0 °F - 57.0 °F 68% 29.95 in 10.0 mi South 6.9 mph - N/A   Clear
11:53 PM 66.9 °F - 57.9 °F 73% 29.95 in 10.0 mi SSE 5.8 mph - N/A   Clear